Tracking 27380 objects as of 6-Jun-2023
HD Live streaming from Space Station
objects crossing your sky now

DMSP 5D-2 F13 DEB

Track DMSP 5D-2 F13 DEB now!
10-day predictions


NORAD ID: 42275
Int'l Code: 1995-015GR
Perigee: 561.4 km
Apogee: 658.8 km
Inclination: 98.6 °
Period: 96.7 minutes
Semi major axis: 6981 km
RCS: Unknown
Launch date: March 24, 1995
Source: United States (US)
Launch site: AIR FORCE WESTERN TEST RANGE (AFWTR)

Note: This is SATELLITE DEBRIS
Your satellite tracking list
Your tracking list is empty




NASA's NSSDC Master Catalog

Two Line Element Set (TLE):
1 42275U 95015GR  23156.85698481  .00059766  00000-0  61235-2 0  9998
2 42275  98.5961 301.5039 0069710 102.4450 258.4576 14.88394968432714
Source of the keplerian elements: AFSPC